Погода в Дашогузе

Погода в Дашогузе : погода сейчас, прогноз погоды и архив. Всё, что Вы хотите узнать о погоде в Дашогузе!

Поиск расширенной информации на нашем сайте:

Другие новости

Новости СМИ2

Главная страница сайта

Новости сайта

03.07.2017

Напоминаем, что на нашем специализированном сайте Метеоцентр.Азия вы можете получить высокодетализированные автоматические прогнозы погоды по пунктам России, СНГ и мира в авиационном формате (включающие направление и скорость ветра, видимость, явления погоды, количество и форму облачности, нижнюю и верхнюю границу облачности).


Погода в Дашогузе - сегодня

Время (UTC), дата Ветер
(°,м/с) 
Видим.   Явления Облачность Т
(°С)
Тd
(°С)
f(%) Тe
(°С)
Pmin
(гПа)
dP
(гПа)
Po
(мм)
O2
(г/м3)
Тmin Tmax R s Состояние
почвы
18 14.08.18 020 (С) 10 км    4/0 средняя 
[Ac trans]
+28.5 +13.6 40 +35  1009.3  0.6  750  271    +37.5       
21 14.08.18 тихо ()   10 км    4/0 средняя 
[Ac trans]
+24.5 +11.4 44 +28  1009  -0.3  750  275           
00 15.08.18 230 (ЮЗ) 10 км    4/0 средняя 
[Ac trans]
+22.4 +10.9 48 +25  1008.9  -0.2  749  277           
03 15.08.18 тихо ()   10 км    8/0 средняя 
[Ac trans]
+25.5 +13.8 48 +32  1010.2  1.4  751  274           
06 15.08.18 310 (СЗ) 10 км    5/0 средняя 
[Ac trans]
+32.6 +15.1 35 +41  1011  751  267  +22.3         
09 15.08.18 350 (С) 10 км    4/0 средняя 
[Ac cast]
+36 +11 22 +38  1010.1  -0.8  751  265           
12 15.08.18 020 (С) 10 км    ясно 
+36 +11.8 23 +40  1009.4  -0.7  750  265           
15 15.08.18 030 (СВ) 10 км    5/0 верхняя 
[Ci fib]
+32.4 +14.3 33 +40  1009.9  0.4  750  268    +37.2       
18 15.08.18 020 (С) 10 км    5/0 верхняя 
[Ci fib]
+27.4 +15.3 48 +27  1010.8  0.7             
21 15.08.18 040 (СВ) 10 км    5/0 верхняя 
[Ci fib]
+24.8 +14.2 52 +32  1010.4  -0.5  751  274           
00 16.08.18 030 (СВ) 10 км    5/0 верхняя 
[Ci fib]
+23.2 +14.4 58 +31  1011.4  751  276           
03 16.08.18 030 (СВ) 10 км    3/0 средняя 
[Ac cast]
+24.4 +14.3 53 +32  1012.7  1.3  752  275           
06 16.08.18 050 (СВ) 10 км    3/0 верхняя 
[Ci fib]
+31.4 +13.9 35 +38  1013.1  0.7  753  269  +22.3         
09 16.08.18 050 (СВ) 10 км    6/0 верхняя 
[Ci sp]
+34.4 +13.1 28 +40  1012.8  -0.3  753  267           
12 16.08.18 050 (СВ) 10 км    6/0 средняя, верхняя 
[Ac trans|Ci sp]
+35.6 +10.3 22 +37  1011.3  -1.4  752  266           
15 16.08.18 040 (СВ) 10 км    6/0 средняя 
[Ac trans]
+33.3 +50.9 100 +226  1011.7  0.3  752  237    +36.4       
18 16.08.18 020 (С) 10 км    3/0 средняя 
[Ac trans]
+27.4 +12.3 39 +32  1012.5  0.6  752  273    +36.4       
21 16.08.18 060 (СВ) 10 км    ясно 
+26.3 +9.9 36 +27  1012  -0.5  752  275           
00 17.08.18 070 (В) 10 км    ясно 
+24.2 +7.8 35 +24  1011.7  -0.4  752  277           
03 17.08.18 080 (В) 10 км    5/0 средняя, верхняя 
[Ac trans|Ci fib]
+25.7 +7.7 32 +26  1012.7  752  276           
06 17.08.18 110 (В) 10 км    3/3 600 м средняя 
[Ac lent]
+29.9 +10.5 30 +32  1012.3  -0.2  752  271  +23.7         
09 17.08.18 060 (СВ) 10 км    3/0 верхняя 
[Ci sp]
+32.2 +9 24 +32  1011.3  -0.9  752  269           
12 17.08.18 040 (СВ) 10 км    3/0 верхняя 
[Ci sp]
+33.2 +9.9 24 +34  1009.5  -1.8  750  268           
15 17.08.18 360 (С) 10 км    6/0 средняя 
[Ac trans]
+31.2 +9.2 26 +31  1008.8  -0.8  750  270    +33.8       
18 17.08.18 360 (С) 10 км    8/8 1500 м средняя 
[Cu med, cong|Ac trans]
+26.3 +11.4 39 +29  1008.9  750  273    +33.8       
Время (UTC), дата Ветер
(°,м/с) 
Видим.   Явления Облачность Т
(°С)
Тd
(°С)
f(%) Тe
(°С)
Pmin
(гПа)
dP
(гПа)
Po
(мм)
O2
(г/м3)
Тmin Tmax R s Состояние
почвы

Для получения пояснительной информации подведите курсор к названию столбца.

ПОГОДА в Дашогузе - архив

Всё, что Вы хотите узнать о погоде в Дашогузе - удобно и подробно!

Выберите нужную дату (начиная с 1 января 2015* года) и нажмите кнопку "Найти".
Будут отображены архивные сводки погоды по пункту Дашогуз, начиная с указанной даты.


Отображать данные в формате CSV (для использования в таблицах Excel)


Внимание! Наш архив погоды предназначен исключительно для личного некоммерческого использования в познавательных целях. Если Вам необходимы официальные справки о состоянии погоды (для производственных, юридических, коммерческих и т.п. целей), обращайтесь в органы Росгидромета.

*Примечание: данная дата относится к архиву по метеостанциям СССР (Россия, СНГ, Балтия).
Архив по метеостанциям Зарубежной Европы и Азии (кроме Китая) хранится 10 дней, по другим регионам земного шара (Китай, Африка, Америка, Австралия, Океания) - 1 день.

Дашогуз - район местоположения метеостанции


Название, широта, долгота, высота метеостанции:
Дашогуз (Ташауз) 41.8°ш. 59.8°д. 82 м над ур. моря [Туркменистан]

Дополнительная информация

В oтличие oт бoльшинства пoгoдных сайтoв мы публикуем пoдрoбную метеoинфoрмацию в детальнoм прoфессиoнальнoм фoрмате.

Характеристики температуры и влажнoсти вoздуха измеряются на высoте 2 м в тени вдали oт зданий и деревьев.
Скoрoсть ветра измеряется на высoте 10 м (на урoвне рoста челoвека скoрoсть ветра ниже в 1.5-2 раза). Если метеoстанция нахoдится в гoрoде или в лесу, тo скoрoсть ветра занижена на 2-4 м/с пo сравнению с oткрытым местoм. Скoрoсть ветра над акватoриями крупных рек и oзёр, а также на вершинах хoлмoв на 2-5 м/с выше, чем в oбычных услoвиях.
Атмoсфернoе давление в разных тoчках местнoсти мoжет значительнo oтличаться oт давления на метеoстанции, в зависимoсти oт услoвий рельефа (при пoдъёме на 10 м давление пoнижается примернo на 1 мм рт.ст.).